DW3693 Weather Reports


Display with metric or nautical units.
time (UTC)temp
F
wind
direction
speed
MPH
gust
MPH
rain 1hr
in
rain 24hr
in
rain mn
in
humidity
%
barometer
mb
20260506024017 62 270 2.0 11.0 0.00 0.00 0.00 72 1012.1
20260506023016 62 293 4.0 7.0 0.00 0.00 0.00 71 1012.0
20260506022036 62 158 3.0 13.0 0.00 0.00 0.00 71 1011.9
20260506021016 63 270 5.0 12.0 0.00 0.00 0.00 69 1011.8
20260506020016 63 293 5.0 12.0 0.00 0.00 0.00 68 1011.7
20260506015016 64 270 4.0 13.0 0.00 0.00 0.00 68 1011.5
20260506014036 64 180 5.0 15.0 0.00 0.00 0.00 67 1011.5
20260506013016 64 293 5.0 11.0 0.00 0.00 0.00 67 1011.3
20260506012018 65 248 4.0 18.0 0.00 0.00 0.00 66 1011.4
20260506011017 65 293 5.0 14.0 0.00 0.00 0.00 66 1011.2
20260506010017 65 248 6.0 17.0 0.00 0.00 0.00 65 1011.0
20260506005057 65 293 5.0 13.0 0.00 0.00 0.00 66 1011.1
20260506004016 66 270 5.0 17.0 0.00 0.00 0.00 65 1011.0
20260506003016 66 270 6.0 18.0 0.00 0.00 0.00 65 1011.0
20260506002016 66 270 8.0 24.0 0.00 0.00 0.00 64 1011.0
20260506001016 67 248 4.0 15.0 0.00 0.00 0.00 64 1011.0
20260506000016 67 270 5.0 17.0 0.00 0.00 0.00 63 1011.2
20260505235016 67 293 5.0 16.0 0.00 0.00 0.00 64 1011.2
20260505234016 67 248 7.0 23.0 0.00 0.00 0.00 62 1011.2
20260505233016 68 270 6.0 12.0 0.00 0.00 0.00 61 1011.4
20260505232017 68 270 5.0 16.0 0.00 0.00 0.00 63 1011.5
20260505231016 68 270 8.0 18.0 0.00 0.00 0.00 61 1011.5
20260505230016 68 270 7.0 15.0 0.00 0.00 0.00 61 1011.7
20260505225016 68 293 5.0 13.0 0.00 0.00 0.00 61 1011.6
20260505224016 68 315 5.0 15.0 0.00 0.00 0.00 62 1011.9
20260505223017 69 338 4.0 14.0 0.00 0.00 0.00 64 1012.1
20260505222015 68 248 5.0 23.0 0.00 0.00 0.00 60 1012.0
20260505221015 68 270 9.0 18.0 0.00 0.00 0.00 61 1012.1
20260505220015 68 248 6.0 17.0 0.00 0.00 0.00 63 1012.2
20260505215015 68 270 6.0 18.0 0.00 0.00 0.00 63 1012.3
20260505214016 68 270 6.0 15.0 0.00 0.00 0.00 61 1012.3
20260505213015 67 248 7.0 18.0 0.00 0.00 0.00 62 1012.2
20260505212016 68 248 6.0 15.0 0.00 0.00 0.00 63 1012.6
20260505211016 68 270 6.0 13.0 0.00 0.00 0.00 61 1012.5
20260505210035 68 270 6.0 18.0 0.00 0.00 0.00 63 1012.5
20260505205035 67 270 6.0 16.0 0.00 0.00 0.00 61 1012.6
20260505204016 67 270 7.0 18.0 0.00 0.00 0.00 62 1012.8
20260505203017 67 293 7.0 21.0 0.00 0.00 0.00 62 1012.9
20260505202017 67 293 5.0 14.0 0.00 0.00 0.00 63 1013.0
20260505201017 67 270 7.0 16.0 0.00 0.00 0.00 62 1012.9
20260505200017 66 270 7.0 15.0 0.00 0.00 0.00 62 1013.0
20260505195017 66 248 6.0 13.0 0.00 0.00 0.00 63 1013.1
20260505194016 66 270 6.0 19.0 0.00 0.00 0.00 65 1013.1
20260505193018 65 270 7.0 19.0 0.00 0.00 0.00 64 1013.2
20260505192017 65 270 8.0 20.0 0.00 0.00 0.00 64 1013.4
20260505191019 65 270 6.0 13.0 0.00 0.00 0.00 66 1013.2
20260505190017 65 270 6.0 14.0 0.00 0.00 0.00 64 1013.4
20260505185015 65 248 6.0 18.0 0.00 0.00 0.00 68 1013.4
20260505184017 65 293 6.0 23.0 0.00 0.00 0.00 65 1013.5
20260505183017 64 270 7.0 19.0 0.00 0.00 0.00 66 1013.6
20260505182017 64 270 5.0 13.0 0.00 0.00 0.00 67 1013.5
20260505181017 64 270 6.0 18.0 0.00 0.00 0.00 69 1013.6
20260505180017 63 270 8.0 17.0 0.00 0.00 0.00 68 1013.6
20260505175017 63 270 7.0 16.0 0.00 0.00 0.00 70 1013.5
20260505174016 63 248 6.0 15.0 0.00 0.00 0.00 68 1013.6
20260505173017 62 270 5.0 17.0 0.00 0.00 0.00 70 1013.6
20260505172017 62 270 8.0 17.0 0.00 0.00 0.00 72 1013.4
20260505171016 61 293 6.0 21.0 0.00 0.00 0.00 72 1013.5
20260505170017 61 270 6.0 13.0 0.00 0.00 0.00 72 1013.5
20260505165018 61 248 5.0 15.0 0.00 0.00 0.00 73 1013.5
20260505164017 61 248 4.0 12.0 0.00 0.00 0.00 73 1013.5
20260505163017 60 270 8.0 24.0 0.00 0.00 0.00 73 1013.3
20260505162037 60 270 5.0 14.0 0.00 0.00 0.00 74 1013.3
20260505161019 60 270 5.0 17.0 0.00 0.00 0.00 74 1013.3
20260505153017 59 270 4.0 14.0 0.00 0.00 0.00 77 1013.2
20260505152036 59 248 5.0 11.0 0.00 0.00 0.00 77 1013.1
20260505151016 58 293 4.0 17.0 0.00 0.00 0.00 78 1013.0
20260505125016 55 270 3.0 8.0 0.00 0.00 0.00 83 1012.2
20260505124016 55 180 4.0 13.0 0.00 0.00 0.00 83 1012.2
20260505123016 56 180 4.0 11.0 0.00 0.00 0.00 83 1012.3
20260505122016 56 248 4.0 13.0 0.00 0.00 0.00 83 1012.4
20260505121016 56 203 3.0 9.0 0.00 0.00 0.00 82 1012.2
20260505120017 56 225 4.0 17.0 0.00 0.00 0.00 82 1012.3
20260505115016 56 180 2.0 12.0 0.00 0.00 0.00 82 1012.3
20260505114016 56 315 3.0 16.0 0.00 0.00 0.00 82 1012.2
20260505113016 56 293 3.0 13.0 0.00 0.00 0.00 81 1012.1
20260505112056 56 248 2.0 7.0 0.00 0.00 0.00 81 1012.0
20260505111022 57 293 3.0 9.0 0.00 0.00 0.00 81 1012.0
20260505102017 57 180 2.0 6.0 0.00 0.00 0.00 80 1011.7
20260505101015 57 270 3.0 11.0 0.00 0.00 0.00 80 1011.4
20260505100016 58 270 6.0 21.0 0.00 0.00 0.00 79 1011.4
20260505095015 58 180 6.0 13.0 0.00 0.00 0.00 79 1011.3
20260505094015 58 203 3.0 12.0 0.00 0.00 0.00 78 1011.3
20260505093016 59 293 4.0 12.0 0.00 0.00 0.00 78 1011.3
20260505092015 59 203 4.0 13.0 0.00 0.00 0.00 78 1011.2
20260505091016 60 158 3.0 11.0 0.00 0.00 0.00 77 1011.2
20260505090138 60 158 5.0 15.0 0.00 0.00 0.00 76 1010.8
20260505085038 61 270 5.0 15.0 0.00 0.00 0.00 75 1010.7
20260505084017 61 293 4.0 16.0 0.00 0.00 0.00 75 1010.5
20260505083037 61 270 5.0 13.0 0.00 0.00 0.00 74 1010.8
20260505082016 62 293 3.0 11.0 0.00 0.00 0.00 74 1010.8
20260505081018 62 270 3.0 9.0 0.00 0.00 0.00 74 1010.5
20260505080057 62 248 4.0 9.0 0.00 0.00 0.00 74 1010.6
20260505075017 63 203 4.0 18.0 0.00 0.00 0.00 75 1010.5
20260505074038 63 338 2.0 10.0 0.00 0.00 0.00 75 1010.5
20260505073016 63 270 3.0 12.0 0.00 0.00 0.00 75 1010.5
20260505072017 63 270 4.0 12.0 0.00 0.00 0.00 75 1010.3
20260505071018 64 0 3.0 11.0 0.00 0.00 0.00 75 1010.3
20260505070017 64 270 3.0 7.0 0.00 0.00 0.00 75 1010.3
20260505065018 64 0 2.0 6.0 0.00 0.00 0.00 75 1010.1
20260505064017 64 180 3.0 7.0 0.00 0.00 0.00 74 1010.1
20260505063018 65 293 3.0 7.0 0.00 0.00 0.00 73 1010.0
20260505062017 65 180 2.0 5.0 0.00 0.00 0.00 73 1010.1
20260505061017 65 270 2.0 7.0 0.00 0.00 0.00 72 1009.7
20260505060019 66 293 3.0 6.0 0.00 0.00 0.00 71 1009.9
20260505055017 66 270 2.0 7.0 0.00 0.00 0.00 70 1009.9
20260505054017 66 270 3.0 13.0 0.00 0.00 0.00 70 1009.7
20260505053018 66 270 4.0 14.0 0.00 0.00 0.00 70 1009.6
20260505052017 66 225 2.0 7.0 0.00 0.00 0.00 69 1009.8
20260505051017 67 248 3.0 10.0 0.00 0.00 0.00 68 1009.7
20260505041016 68 270 4.0 7.0 0.00 0.00 0.00 63 1008.9
20260505040038 68 135 2.0 6.0 0.00 0.00 0.00 62 1008.8
20260505035017 68 270 3.0 6.0 0.00 0.00 0.00 62 1008.6
20260505034017 68 293 3.0 10.0 0.00 0.00 0.00 61 1008.5
20260505033036 68 293 2.0 5.0 0.00 0.00 0.00 61 1008.4
20260505032016 69 270 2.0 6.0 0.00 0.00 0.00 60 1008.1
20260505031017 69 270 2.0 14.0 0.00 0.00 0.00 59 1008.1
20260505030036 69 315 2.0 4.0 0.00 0.00 0.00 59 1007.8
20260505025016 70 180 1.0 3.0 0.00 0.00 0.00 58 1007.7